User: anonymous   Login
Location: Unspecified
(0.0000°N, 0.0000°E)
Time: 15:50:21
(UTC+02:00)
Language:

Cosmos 1933 - Orbit

View from above orbital plane
View from above orbital plane
View from above satellite
View from above satellite

Ground track
Ground track

The orbit data is extracted from the following two-line orbital elements,

1 18958U 88020A   18171.81319149 +.00000122 +00000-0 +68278-5 0  9994
2 18958 082.5299 108.0977 0013278 105.8302 254.4389 15.03453445625743
Epoch (UTC): 20 June 2018 19:30:59
Eccentricity: 0.0013278
inclination: 82.5299°
perigee height: 547 km
apogee height: 565 km
right ascension of ascending node: 108.0977°
argument of perigee: 105.8302°
revolutions per day: 15.03453445
mean anomaly at epoch: 254.4389°
orbit number at epoch: 62574

The dashed part of the orbit path shows where the satellite is in the earth's shadow,  

DLR